Stuttgart, AR

3:04 AM CDT on March 30, 2017 (GMT -0500)
Stuttgart Municipal

Weather History for KSGT - November, 2012

Change the Weather History Date:

Friday, November 2, 2012

  Actual Average Record
Temperature  
Mean Temperature 62 °F -  
Max Temperature 77 °F 65 °F 82 °F (2003)
Min Temperature 48 °F 48 °F 32 °F (2006)
Degree Days  
Heating Degree Days 2    
Growing Degree Days 12 (Base 50)    
Moisture  
Dew Point 51 °F    
Average Humidity 69    
Maximum Humidity 88    
Minimum Humidity 47    
Precipitation  
Precipitation 0.00 in - - ()
Sea Level Pressure  
Sea Level Pressure 29.98 in    
Wind  
Wind Speed 2 mph (ESE)    
Max Wind Speed 8 mph    
Max Gust Speed -    
Visibility 8 miles    
Events      
Averages and records for this station are not official NWS values.
T = Trace of Precipitation, MM = Missing Value Source: NWS Daily Summary

Daily Weather History Graph

Daily Weather History Graph

Search for Another Location

Airport or City:

Trip Planner

Search our weather history database for the weather conditions in past years. The results will help you decide how hot, cold, wet, or windy it might be!

Date:

Astronomy

Nov. 02, 2012 Rise Set
Actual Time 7:28 AM CDT 6:11 PM CDT
Civil Twilight 7:01 AM CDT 6:37 PM CDT
Nautical Twilight 6:32 AM CDT 7:07 PM CDT
Astronomical Twilight 6:02 AM CDT 7:36 PM CDT
Moon 9:03 PM CDT (11/2) 10:43 AM CDT (11/2)
Length of Visible Light 11h 35m
Length of Day
10h 43m
Waning Gibbous, 87% of the Moon is Illuminated
Nov 2
Waning Gibbous
Nov 6
Last Quarter
Nov 13
New
Nov 20
First Quarter
Nov 28
Full

Hourly Weather History & Observations

Time (CDT) Temp. Dew Point Humidity Pressure Visibility Wind Dir Wind Speed Gust Speed Precip Events Conditions
12:15 AM 53.6 °F 42.8 °F 67% 29.98 in 10.0 mi North - - N/A   Clear
12:35 AM 53.6 °F 44.6 °F 72% 29.97 in 10.0 mi North - - N/A   Clear
1:15 AM 53.6 °F 44.6 °F 72% 29.97 in 10.0 mi North - - N/A   Clear
1:35 AM 53.6 °F 44.6 °F 72% 29.97 in 10.0 mi North - - N/A   Clear
2:15 AM 53.6 °F 46.4 °F 77% 29.97 in 10.0 mi North - - N/A   Clear
3:15 AM 48.2 °F 44.6 °F 87% 29.97 in 10.0 mi North - - N/A   Clear
3:35 AM 48.2 °F 42.8 °F 82% 29.97 in 10.0 mi North - - N/A   Clear
3:55 AM 50.0 °F 44.6 °F 82% 29.96 in 10.0 mi North - - N/A   Clear
4:15 AM 48.2 °F 42.8 °F 82% 29.96 in 10.0 mi North - - N/A   Clear
4:35 AM 48.2 °F 42.8 °F 82% 29.97 in 10.0 mi North - - N/A   Clear
4:56 AM 50.0 °F 44.6 °F 82% 29.96 in 10.0 mi North - - N/A   Clear
5:15 AM 51.8 °F 44.6 °F 76% 29.96 in 10.0 mi Calm Calm - N/A   Clear
5:35 AM 50.0 °F 44.6 °F 82% 29.96 in 10.0 mi Calm Calm - N/A   Clear
6:15 AM 48.2 °F 42.8 °F 82% 29.97 in 10.0 mi Calm Calm - N/A   Clear
6:35 AM 48.2 °F 44.6 °F 87% 29.97 in 10.0 mi Calm Calm - N/A   Clear
6:55 AM 48.2 °F 44.6 °F 87% 29.97 in 10.0 mi ENE 4.6 mph - N/A   Clear
7:16 AM 50.0 °F 44.6 °F 82% 29.97 in 10.0 mi Calm Calm - N/A   Clear
7:35 AM 48.2 °F 44.6 °F 87% 29.98 in 10.0 mi Calm Calm - N/A   Clear
7:55 AM 48.2 °F 44.6 °F 87% 29.99 in 10.0 mi Calm Calm - N/A   Clear
8:35 AM 51.8 °F 48.2 °F 88% 29.99 in 10.0 mi ENE 3.5 mph - N/A   Clear
8:55 AM 55.4 °F 50.0 °F 82% 30.00 in 10.0 mi Calm Calm - N/A   Clear
9:15 AM 57.2 °F 51.8 °F 82% 30.01 in 10.0 mi Calm Calm - N/A   Clear
9:35 AM 59.0 °F 51.8 °F 77% 30.01 in 10.0 mi SSE 3.5 mph - N/A   Clear
9:55 AM 60.8 °F 53.6 °F 77% 30.01 in 10.0 mi ENE 3.5 mph - N/A   Clear
10:15 AM 62.6 °F 53.6 °F 72% 30.02 in 10.0 mi Calm Calm - N/A   Clear
10:36 AM 62.6 °F 53.6 °F 72% 30.02 in 10.0 mi Calm Calm - N/A   Clear
10:55 AM 64.4 °F 53.6 °F 68% 30.02 in 10.0 mi ENE 3.5 mph - N/A   Clear
11:15 AM 66.2 °F 53.6 °F 64% 30.02 in 7.0 mi Calm Calm - N/A   Clear
11:55 AM 69.8 °F 55.4 °F 60% 30.01 in 2.0 mi NE 3.5 mph - N/A   Clear
12:15 PM 69.8 °F 53.6 °F 56% 30.01 in 6.0 mi ENE 3.5 mph - N/A   Clear
12:35 PM 71.6 °F 55.4 °F 57% 30.00 in 10.0 mi Calm Calm - N/A   Clear
12:56 PM 73.4 °F 55.4 °F 53% 30.00 in 10.0 mi Calm Calm - N/A   Clear
1:15 PM 73.4 °F 55.4 °F 53% 30.00 in 10.0 mi Calm Calm - N/A   Clear
1:35 PM 73.4 °F 55.4 °F 53% 29.99 in 3.0 mi ESE 3.5 mph - N/A   Clear
2:15 PM 75.2 °F 55.4 °F 50% 29.98 in 8.0 mi East 4.6 mph - N/A   Clear
2:35 PM 75.2 °F 55.4 °F 50% 29.98 in 10.0 mi Calm Calm - N/A   Clear
2:55 PM 75.2 °F 55.4 °F 50% 29.97 in 9.0 mi SSE 3.5 mph - N/A   Clear
3:16 PM 75.2 °F 55.4 °F 50% 29.97 in 10.0 mi ESE 3.5 mph - N/A   Clear
3:35 PM 77.0 °F 55.4 °F 47% 29.96 in 10.0 mi ESE 6.9 mph - N/A   Clear
3:55 PM 77.0 °F 55.4 °F 47% 29.96 in 1.0 mi SE 6.9 mph - N/A   Clear
4:15 PM 77.0 °F 55.4 °F 47% 29.96 in 0.8 mi SE 6.9 mph - N/A   Unknown
4:35 PM 77.0 °F 55.4 °F 47% 29.96 in 2.0 mi SE 6.9 mph - N/A   Clear
4:55 PM 77.0 °F 55.4 °F 47% 29.96 in 3.0 mi SSE 6.9 mph - N/A   Clear
5:15 PM 75.2 °F 55.4 °F 50% 29.96 in 5.0 mi SSE 5.8 mph - N/A   Clear
5:55 PM 75.2 °F 55.4 °F 50% 29.97 in 5.0 mi Calm Calm - N/A   Clear
6:15 PM 73.4 °F 55.4 °F 53% 29.97 in 1.8 mi ESE 4.6 mph - N/A   Clear
6:35 PM 71.6 °F 55.4 °F 57% 29.97 in 3.0 mi SE 4.6 mph - N/A   Clear
6:55 PM 69.8 °F 55.4 °F 60% 29.97 in 4.0 mi ESE 5.8 mph - N/A   Clear
7:15 PM 68.0 °F 55.4 °F 64% 29.98 in 5.0 mi SE 5.8 mph - N/A   Clear
7:35 PM 66.2 °F 55.4 °F 68% 29.98 in 3.0 mi East 8.1 mph - N/A   Clear
7:55 PM 66.2 °F 55.4 °F 68% 29.97 in 3.0 mi ESE 6.9 mph - N/A   Clear
8:15 PM 66.2 °F 55.4 °F 68% 29.97 in 5.0 mi North - - N/A   Clear
8:55 PM 64.4 °F 55.4 °F 73% 29.97 in 5.0 mi North - - N/A   Clear
9:15 PM 62.6 °F 55.4 °F 77% 29.98 in 5.0 mi North - - N/A   Clear
9:35 PM 62.6 °F 53.6 °F 72% 29.98 in 8.0 mi North - - N/A   Clear
9:55 PM 62.6 °F 55.4 °F 77% 29.98 in 10.0 mi North - - N/A   Clear
10:15 PM 62.6 °F 55.4 °F 77% 29.98 in 10.0 mi North - - N/A   Clear
10:35 PM 62.6 °F 53.6 °F 72% 29.98 in 10.0 mi North - - N/A   Clear
10:55 PM 62.6 °F 55.4 °F 77% 29.98 in 9.0 mi North - - N/A   Clear
11:35 PM 60.8 °F 53.6 °F 77% 29.99 in 10.0 mi North - - N/A   Clear
11:55 PM 60.8 °F 53.6 °F 77% 29.99 in 10.0 mi North - - N/A   Clear